Location: Casone le Fosse
(44.6547°N, 12.1103°E)
Time: 11:31:42
(UTC+00:00)

Cosmos 1812 Rocket - Pass Details

Date: 29 October 2020
Orbit: 605 x 633 km, 82.5° (Epoch: 28 November)

Event Time Altitude Azimuth Distance (km) Brightness Sun altitude
Rises 17:20:12 0° 166° (SSE) 2,890 6.9 -14.0°
Reaches altitude 10° 17:22:32 10° 158° (SSE) 1,984 6.0 -14.4°
Maximum altitude 17:26:34 36° 92° (E) 976 4.0 -15.2°
Drops below altitude 10° 17:30:35 10° 25° (NNE) 1,983 5.9 -15.9°
Sets 17:32:56 0° 17° (NNE) 2,888 6.8 -16.3°
